EW5171 Weather Reports


time (UTC)temp
C
wind
direction
speed
KPH
gust
KPH
rain 1hr
cm
rain 24hr
cm
rain mn
cm
humidity
%
barometer
mb
20260831211506 13 280 0.0 1.6 0.00 0.33 0.28 95 1007.2
20260831211005 13 280 0.0 3.2 0.00 0.33 0.28 95 1007.2
20260831210506 13 280 0.0 3.2 0.00 0.33 0.28 96 1007.2
20260831210006 13 280 0.0 1.6 0.00 0.33 0.28 96 1007.1
20260831205605 13 280 0.0 1.6 0.00 0.33 0.28 95 1007.2
20260831205008 13 280 0.0 3.2 0.00 0.33 0.28 95 1007.1
20260831204505 13 280 0.0 3.2 0.00 0.33 0.28 95 1007.1
20260831204005 13 280 0.0 3.2 0.00 0.33 0.28 95 1007.1
20260831203505 13 255 0.0 3.2 0.00 0.33 0.28 95 1007.0
20260831203004 13 223 0.0 3.2 0.00 0.33 0.28 95 1007.0
20260831202504 13 172 0.0 1.6 0.00 0.33 0.28 94 1007.0
20260831202004 13 172 0.0 1.6 0.00 0.33 0.28 95 1007.0
20260831201503 13 172 0.0 1.6 0.00 0.33 0.28 94 1007.1
20260831201003 13 172 0.0 1.6 0.00 0.33 0.28 94 1007.1
20260831200503 13 172 0.0 1.6 0.00 0.33 0.28 94 1007.1
20260831200003 13 172 0.0 0.0 0.00 0.33 0.28 94 1007.0
20260831195502 13 172 0.0 0.0 0.00 0.38 0.28 94 1007.0
20260831195003 13 172 0.0 0.0 0.00 0.38 0.28 94 1007.1
20260831194503 13 172 0.0 0.0 0.00 0.38 0.28 93 1007.0
20260831194002 13 172 0.0 0.0 0.00 0.38 0.28 93 1007.1
20260831193503 14 172 0.0 0.0 0.00 0.38 0.28 93 1007.0
20260831193001 14 172 0.0 0.0 0.00 0.38 0.28 93 1006.9
20260831192501 14 172 0.0 0.0 0.00 0.38 0.28 93 1006.9
20260831192001 14 172 0.0 0.0 0.00 0.38 0.28 93 1006.8
20260831191501 15 172 0.0 0.0 0.00 0.38 0.28 93 1006.8
20260831191001 15 172 0.0 0.0 0.00 0.38 0.28 93 1006.7
20260831190501 15 172 0.0 0.0 0.00 0.38 0.28 93 1006.8
20260831190001 15 172 0.0 0.0 0.00 0.38 0.28 93 1006.8
20260831185601 15 172 0.0 0.0 0.00 0.43 0.28 93 1006.7
20260831185104 15 172 0.0 1.6 0.00 0.43 0.28 92 1006.6
20260831184601 15 172 0.0 1.6 0.00 0.43 0.28 92 1006.6
20260831184104 15 172 0.0 0.0 0.00 0.43 0.28 92 1006.5
20260831183600 15 172 0.0 1.6 0.00 0.43 0.28 92 1006.5
20260831183108 16 172 0.0 1.6 0.00 0.43 0.28 92 1006.4
20260831182600 16 172 0.0 1.6 0.00 0.43 0.28 91 1006.4
20260831182102 16 172 0.0 1.6 0.00 0.43 0.28 91 1006.4
20260831181607 16 172 0.0 1.6 0.00 0.43 0.28 91 1006.4
20260831181059 16 172 0.0 1.6 0.00 0.43 0.28 91 1006.2
20260831180558 16 172 0.0 1.6 0.00 0.43 0.28 91 1006.2
20260831180113 16 172 0.0 3.2 0.00 0.43 0.28 91 1006.2
20260831175558 16 172 0.0 3.2 0.00 0.46 0.28 91 1006.1
20260831175103 17 172 0.0 3.2 0.00 0.46 0.28 91 1006.2
20260831174558 17 250 0.0 3.2 0.00 0.46 0.28 90 1006.1
20260831174058 17 250 0.0 3.2 0.00 0.46 0.28 90 1006.1
20260831173558 17 250 0.0 4.8 0.00 0.46 0.28 90 1006.1
20260831173058 17 250 0.0 6.4 0.00 0.46 0.28 90 1006.0
20260831172557 17 262 1.6 6.4 0.00 0.46 0.28 89 1006.1
20260831172057 17 158 0.0 4.8 0.00 0.46 0.28 89 1006.0
20260831171557 17 208 1.6 4.8 0.00 0.46 0.28 89 1006.0
20260831171058 17 183 1.6 6.4 0.00 0.46 0.28 89 1005.9
20260831170558 17 229 0.0 8.0 0.00 0.46 0.28 88 1005.8
20260831170058 17 202 1.6 8.0 0.00 0.46 0.28 88 1005.9
20260831165556 17 200 1.6 12.9 0.00 0.51 0.28 88 1005.9
20260831165057 17 167 1.6 12.9 0.03 0.51 0.28 88 1005.9
20260831164557 17 200 4.8 12.9 0.03 0.51 0.28 88 1005.9
20260831164059 17 158 4.8 11.3 0.03 0.51 0.28 88 1005.8
20260831163556 17 275 3.2 14.5 0.03 0.51 0.28 89 1005.8
20260831163056 17 121 6.4 14.5 0.03 0.51 0.28 89 1005.9
20260831162557 17 288 3.2 12.9 0.03 0.51 0.28 90 1005.9
20260831162056 17 224 4.8 12.9 0.03 0.51 0.28 90 1005.9
20260831161555 17 225 4.8 14.5 0.03 0.51 0.28 90 1005.9
20260831161055 17 164 1.6 9.7 0.03 0.51 0.28 90 1005.9
20260831160555 17 216 3.2 9.7 0.03 0.51 0.28 90 1005.8
20260831160054 17 201 1.6 12.9 0.03 0.51 0.28 90 1005.8
20260831155556 17 234 4.8 12.9 0.00 0.51 0.25 89 1005.8
20260831155054 17 286 3.2 11.3 0.00 0.51 0.25 89 1005.8
20260831154557 17 205 1.6 17.7 0.00 0.51 0.25 89 1005.7
20260831154053 17 162 4.8 17.7 0.00 0.51 0.25 89 1005.8
20260831153554 17 196 4.8 16.1 0.00 0.51 0.25 89 1005.7
20260831153058 17 204 1.6 14.5 0.00 0.51 0.25 89 1005.8
20260831152554 17 246 1.6 12.9 0.00 0.51 0.25 89 1005.7
20260831152052 17 216 1.6 12.9 0.03 0.51 0.25 88 1005.6
20260831151604 17 188 3.2 16.1 0.03 0.51 0.25 88 1005.6
20260831151050 17 210 6.4 16.1 0.03 0.51 0.25 89 1005.7
20260831150554 17 192 4.8 12.9 0.03 0.51 0.25 91 1005.7
20260831150051 17 157 4.8 14.5 0.03 0.51 0.25 91 1005.7
20260831145550 17 207 3.2 14.5 0.03 0.53 0.25 90 1005.7
20260831145050 17 299 4.8 14.5 0.03 0.53 0.25 90 1005.7
20260831144550 17 175 3.2 14.5 0.03 0.53 0.25 90 1005.8
20260831144053 17 204 3.2 16.1 0.03 0.53 0.25 90 1005.7
20260831143550 17 227 3.2 16.1 0.03 0.53 0.25 90 1005.7
20260831143050 17 219 3.2 11.3 0.03 0.53 0.25 90 1005.7
20260831142550 17 263 3.2 16.1 0.03 0.53 0.25 90 1005.7
20260831142049 17 192 4.8 17.7 0.00 0.51 0.23 90 1005.8
20260831141549 17 243 4.8 11.3 0.00 0.51 0.23 91 1005.8
20260831141049 17 186 3.2 9.7 0.00 0.51 0.23 92 1005.8
20260831140552 17 175 4.8 9.7 0.00 0.51 0.23 92 1005.8
20260831140055 17 178 1.6 11.3 0.00 0.51 0.23 92 1005.9
20260831135548 17 184 3.2 11.3 0.00 0.56 0.23 92 1005.8
20260831135051 17 117 4.8 11.3 0.00 0.56 0.23 92 1005.8
20260831134548 17 173 4.8 14.5 0.00 0.56 0.23 92 1005.8
20260831134047 17 172 8.0 14.5 0.00 0.56 0.23 93 1005.8
20260831133547 17 167 3.2 12.9 0.00 0.56 0.23 93 1005.8
20260831133049 17 126 4.8 11.3 0.00 0.56 0.23 94 1005.7
20260831132547 17 150 4.8 9.7 0.00 0.56 0.23 94 1005.7
20260831132047 17 209 3.2 11.3 0.00 0.56 0.23 95 1005.7
20260831131545 17 169 3.2 11.3 0.00 0.56 0.23 95 1005.7
20260831131045 17 207 4.8 8.0 0.00 0.56 0.23 96 1005.7
20260831130545 16 173 3.2 8.0 0.00 0.56 0.23 96 1005.7
20260831130049 16 130 1.6 8.0 0.00 0.56 0.23 96 1005.7
20260831125545 16 253 1.6 6.4 0.00 0.58 0.23 96 1005.7
20260831125045 16 170 1.6 8.0 0.00 0.58 0.23 96 1005.8
20260831124551 15 216 1.6 4.8 0.00 0.58 0.23 96 1005.9
20260831124045 15 176 1.6 4.8 0.00 0.58 0.23 95 1005.9
20260831123545 15 186 0.0 4.8 0.00 0.58 0.23 95 1006.0
20260831123045 15 219 0.0 3.2 0.00 0.58 0.23 95 1006.0
20260831122547 15 219 0.0 3.2 0.00 0.58 0.23 95 1005.9
20260831122045 15 219 0.0 3.2 0.00 0.58 0.23 96 1005.9
20260831121546 15 219 0.0 4.8 0.03 0.58 0.23 95 1006.0
20260831121044 15 182 0.0 4.8 0.03 0.58 0.23 95 1006.0
20260831120543 15 182 1.6 4.8 0.03 0.58 0.23 94 1006.0
20260831120044 15 212 0.0 4.8 0.03 0.58 0.23 94 1006.0
20260831115544 15 213 1.6 4.8 0.03 0.61 0.23 94 1006.0
20260831115043 15 212 0.0 4.8 0.03 0.61 0.23 94 1006.0
20260831114544 15 212 0.0 4.8 0.03 0.61 0.23 94 1006.0
20260831114043 15 213 1.6 4.8 0.03 0.61 0.23 94 1006.0
20260831113543 15 261 1.6 4.8 0.03 0.61 0.23 93 1005.9
20260831113044 15 194 1.6 9.7 0.03 0.61 0.23 93 1005.9
20260831112542 15 200 3.2 9.7 0.03 0.61 0.23 93 1006.0
20260831112047 16 178 0.0 6.4 0.03 0.61 0.23 93 1005.7
20260831111543 16 215 1.6 19.3 0.00 0.61 0.23 92 1005.5
20260831111041 16 165 6.4 19.3 0.03 0.61 0.23 92 1005.7
20260831110541 17 210 9.7 19.3 0.03 0.61 0.23 92 1005.8
20260831110045 17 190 6.4 16.1 0.03 0.61 0.23 93 1005.8
20260831105541 17 190 6.4 12.9 0.03 0.66 0.23 92 1005.8
20260831105041 17 218 4.8 9.7 0.03 0.66 0.23 92 1005.8
20260831104558 18 147 3.2 14.5 0.03 0.66 0.23 92 1005.7
20260831104040 18 188 4.8 14.5 0.03 0.66 0.23 92 1005.7
20260831103543 18 136 4.8 16.1 0.03 0.66 0.23 91 1005.7
20260831103039 18 194 6.4 16.1 0.03 0.66 0.23 90 1005.7
20260831102538 18 158 3.2 12.9 0.03 0.66 0.23 92 1005.8
20260831102037 18 149 6.4 17.7 0.03 0.66 0.23 92 1005.9
20260831101536 18 180 6.4 17.7 0.03 0.66 0.23 92 1005.9
20260831101035 18 182 4.8 17.7 0.00 0.64 0.20 93 1006.0
20260831100534 17 203 8.0 17.7 0.00 0.64 0.20 94 1005.9
20260831100038 17 186 6.4 17.7 0.00 0.64 0.20 94 1006.0
20260831095532 17 187 4.8 14.5 0.00 0.71 0.20 94 1006.0
20260831095031 17 197 4.8 11.3 0.00 0.71 0.20 95 1006.0
20260831094538 17 196 3.2 19.3 0.00 0.71 0.20 96 1006.1
20260831094029 17 95 4.8 17.7 0.00 0.71 0.20 96 1006.1
20260831093528 17 196 9.7 17.7 0.00 0.71 0.20 95 1006.3
20260831093032 17 204 6.4 11.3 0.00 0.71 0.20 95 1006.2
20260831092526 17 141 3.2 16.1 0.03 0.71 0.20 95 1006.2
20260831092027 17 178 6.4 14.5 0.03 0.71 0.20 95 1006.3
20260831091525 17 188 4.8 16.1 0.03 0.71 0.20 96 1006.3
20260831091024 17 174 4.8 16.1 0.03 0.71 0.20 96 1006.5
20260831090524 17 203 6.4 16.1 0.03 0.71 0.20 96 1006.5
20260831090023 17 162 4.8 12.9 0.03 0.71 0.20 97 1006.6
20260831085523 16 138 4.8 12.9 0.03 0.76 0.20 96 1006.6
20260831085021 16 153 3.2 9.7 0.03 0.76 0.20 96 1006.7
20260831084533 16 131 3.2 16.1 0.03 0.76 0.20 96 1006.6
20260831084020 16 186 4.8 16.1 0.03 0.76 0.20 96 1006.7
20260831083520 16 202 3.2 14.5 0.03 0.76 0.20 96 1006.7
20260831083035 16 192 3.2 9.7 0.00 0.71 0.18 96 1006.7
20260831082518 16 155 1.6 14.5 0.00 0.71 0.18 95 1006.7
20260831082018 16 188 4.8 16.1 0.00 0.71 0.18 95 1006.8
20260831081517 16 178 3.2 14.5 0.00 0.71 0.18 95 1006.7
20260831081019 16 219 6.4 16.1 0.00 0.71 0.18 95 1006.8
20260831080516 16 198 4.8 16.1 0.00 0.71 0.18 95 1006.8
20260831080026 16 196 4.8 11.3 0.03 0.71 0.18 95 1006.9
20260831075516 16 192 4.8 11.3 0.03 0.79 0.18 95 1006.9
20260831075016 16 187 6.4 11.3 0.03 0.79 0.18 95 1006.9
20260831074517 16 179 3.2 12.9 0.03 0.79 0.18 95 1007.0
20260831074017 16 216 4.8 14.5 0.03 0.79 0.18 95 1006.9
20260831073515 16 178 4.8 14.5 0.03 0.79 0.18 95 1006.9
20260831073019 16 194 3.2 12.9 0.03 0.79 0.18 96 1006.8
20260831072513 16 200 4.8 12.9 0.03 0.79 0.18 96 1007.0
20260831072013 16 182 3.2 11.3 0.03 0.79 0.18 96 1007.0
20260831071512 16 178 1.6 8.0 0.03 0.79 0.18 97 1007.0
20260831071011 16 188 3.2 8.0 0.03 0.79 0.18 96 1007.1
20260831070510 16 186 3.2 8.0 0.03 0.79 0.18 97 1007.0
20260831070011 16 273 1.6 8.0 0.00 0.76 0.15 97 1007.0
20260831065510 16 173 3.2 8.0 0.00 0.79 0.15 97 1007.0
20260831065011 16 177 1.6 8.0 0.00 0.79 0.15 97 1007.1
20260831064509 16 169 0.0 4.8 0.00 0.79 0.15 97 1007.0
20260831064009 16 213 1.6 9.7 0.00 0.79 0.15 97 1007.1
20260831063508 16 186 3.2 9.7 0.00 0.79 0.15 97 1007.1
20260831063008 15 198 3.2 9.7 0.00 0.79 0.15 98 1007.2
20260831062507 15 205 1.6 11.3 0.00 0.79 0.15 97 1007.1
20260831062009 15 200 3.2 6.4 0.03 0.79 0.15 98 1007.2
20260831061504 15 202 0.0 4.8 0.03 0.79 0.15 98 1007.2
20260831061004 15 202 1.6 6.4 0.03 0.79 0.15 98 1007.3
20260831060502 15 202 1.6 6.4 0.03 0.79 0.15 98 1007.3
20260831055559 15 196 0.0 4.8 0.03 0.79 0.15 98 1007.2
20260831055058 14 196 0.0 4.8 0.03 0.79 0.15 98 1007.3
20260831054558 13 227 0.0 1.6 0.03 0.79 0.15 98 1007.3
20260831054055 13 227 0.0 0.0 0.03 0.79 0.15 98 1007.3
20260831053557 12 227 0.0 0.0 0.03 0.79 0.15 97 1007.3
20260831053053 12 227 0.0 0.0 0.03 0.79 0.15 97 1007.4
20260831052553 12 227 0.0 0.0 0.03 0.79 0.15 97 1007.4
20260831052051 12 227 0.0 0.0 0.00 0.79 0.15 97 1007.4
20260831051554 12 227 0.0 0.0 0.03 0.79 0.15 97 1007.5
20260831051050 12 227 0.0 0.0 0.03 0.79 0.15 97 1007.5
20260831050549 12 227 0.0 0.0 0.03 0.79 0.15 97 1007.5
20260831050049 12 227 0.0 0.0 0.03 0.79 0.15 97 1007.6
20260831045548 12 227 0.0 0.0 0.03 0.79 0.15 97 1007.6
20260831045048 12 227 0.0 1.6 0.03 0.79 0.15 97 1007.6
20260831044554 12 227 0.0 1.6 0.03 0.79 0.15 97 1007.6
20260831044047 12 227 0.0 0.0 0.03 0.79 0.15 97 1007.6
20260831043546 12 227 0.0 0.0 0.03 0.79 0.15 97 1007.5
20260831043046 12 227 0.0 0.0 0.03 0.79 0.15 97 1007.5
20260831042549 12 227 0.0 0.0 0.03 0.79 0.15 97 1007.5
20260831042045 12 227 0.0 0.0 0.03 0.79 0.15 97 1007.6
20260831041551 12 227 0.0 0.0 0.00 0.76 0.13 96 1007.6
20260831041048 12 227 0.0 0.0 0.00 0.76 0.13 96 1007.6
20260831040544 12 227 0.0 0.0 0.00 0.76 0.13 96 1007.6
20260831040043 12 227 0.0 0.0 0.00 0.76 0.13 96 1007.6
20260831035546 12 227 0.0 0.0 0.00 0.76 0.13 96 1007.6
20260831035042 12 227 0.0 0.0 0.00 0.76 0.13 96 1007.6
20260831034542 12 227 0.0 0.0 0.00 0.76 0.13 96 1007.6
20260831034042 12 227 0.0 0.0 0.03 0.76 0.13 96 1007.7
20260831033542 13 227 0.0 0.0 0.03 0.76 0.13 96 1007.7
20260831033042 13 227 0.0 0.0 0.03 0.76 0.13 96 1007.7
20260831032541 13 227 0.0 0.0 0.03 0.76 0.13 96 1007.7
20260831032040 13 227 0.0 0.0 0.03 0.76 0.13 96 1007.7
20260831031540 13 227 0.0 0.0 0.03 0.76 0.13 97 1007.7
20260831031043 13 227 0.0 1.6 0.03 0.76 0.13 97 1007.8
20260831030541 13 227 0.0 0.0 0.03 0.76 0.13 97 1007.8
20260831030039 13 227 0.0 3.2 0.05 0.76 0.13 97 1007.9
20260831025538 13 227 0.0 3.2 0.05 0.76 0.13 96 1008.0
20260831025038 13 227 0.0 0.0 0.05 0.76 0.13 96 1008.0
20260831024541 13 227 0.0 0.0 0.05 0.76 0.13 96 1007.9
20260831024038 13 227 0.0 0.0 0.03 0.71 0.10 96 1008.0
20260831023537 13 227 0.0 0.0 0.03 0.71 0.10 96 1007.9
20260831023138 13 227 0.0 0.0 0.03 0.71 0.10 96 1007.9
20260831022537 13 227 0.0 0.0 0.03 0.71 0.10 96 1007.9
20260831022036 13 227 0.0 1.6 0.03 0.71 0.10 96 1007.9
20260831021539 13 227 0.0 1.6 0.03 0.71 0.10 96 1007.9
20260831021038 13 227 0.0 0.0 0.03 0.71 0.10 96 1008.0
20260831020535 13 227 0.0 1.6 0.03 0.71 0.10 96 1008.0
20260831020035 13 227 0.0 3.2 0.00 0.71 0.08 96 1008.1
20260831015534 13 227 0.0 3.2 0.03 0.71 0.08 96 1008.1
20260831015034 13 227 0.0 3.2 0.03 0.71 0.08 96 1008.1
20260831014545 13 227 0.0 3.2 0.03 0.71 0.08 96 1008.1
20260831014033 14 227 0.0 1.6 0.03 0.71 0.08 96 1008.1
20260831013533 14 298 0.0 1.6 0.03 0.71 0.08 96 1008.1
20260831013040 14 298 0.0 1.6 0.03 0.71 0.08 96 1008.2
20260831012533 14 298 0.0 4.8 0.03 0.71 0.08 96 1008.1
20260831012033 14 298 0.0 4.8 0.03 0.71 0.08 96 1008.2
20260831011535 14 238 0.0 4.8 0.03 0.71 0.08 96 1008.2
20260831011032 14 199 0.0 4.8 0.03 0.71 0.08 96 1008.2
20260831010531 14 196 0.0 4.8 0.03 0.71 0.08 96 1008.3
20260831010031 14 190 0.0 4.8 0.03 0.71 0.08 96 1008.3
20260831005531 14 244 0.0 3.2 0.00 0.71 0.05 97 1008.2
20260831005033 14 234 0.0 4.8 0.03 0.71 0.05 97 1008.2
20260831004530 14 240 0.0 4.8 0.03 0.71 0.05 96 1008.2
20260831004033 13 239 0.0 3.2 0.03 0.71 0.05 96 1008.3
20260831003529 13 239 0.0 4.8 0.03 0.71 0.05 96 1008.2
20260831003028 13 239 0.0 4.8 0.03 0.71 0.05 96 1008.3
20260831002528 13 239 0.0 1.6 0.03 0.71 0.05 96 1008.3
20260831002027 13 239 0.0 1.6 0.03 0.71 0.05 96 1008.2
20260831001527 13 239 0.0 1.6 0.03 0.71 0.05 96 1008.2
20260831001028 13 239 0.0 3.2 0.03 0.71 0.05 96 1008.2
20260831000526 13 239 0.0 3.2 0.03 0.71 0.05 96 1008.1
20260831000036 13 239 0.0 1.6 0.03 0.71 0.05 96 1008.1
20260830235524 13 239 0.0 1.6 0.03 0.71 0.05 96 1008.1
20260830235023 13 239 0.0 1.6 0.00 0.69 0.05 96 1008.1
20260830234523 13 239 0.0 3.2 0.03 0.69 0.05 96 1008.1
20260830234024 13 239 0.0 3.2 0.03 0.69 0.05 96 1008.1
20260830233526 13 239 0.0 4.8 0.03 0.69 0.05 96 1008.2
20260830233029 13 239 0.0 4.8 0.03 0.69 0.05 96 1008.3
20260830232522 13 291 0.0 0.0 0.03 0.69 0.05 96 1008.3
20260830232122 13 291 0.0 1.6 0.05 0.69 0.05 96 1008.2
20260830231524 12 291 0.0 3.2 0.05 0.69 0.05 95 1008.1
20260830231021 12 291 0.0 3.2 0.05 0.69 0.05 95 1008.2
20260830230519 12 291 0.0 1.6 0.05 0.69 0.05 95 1008.2
20260830230019 12 291 0.0 1.6 0.05 0.69 0.05 95 1008.1
20260830225519 12 291 0.0 0.0 0.05 0.69 0.05 95 1008.2
20260830225019 12 291 0.0 0.0 0.05 0.69 0.05 95 1008.2
20260830224519 12 291 0.0 1.6 0.03 0.66 0.03 95 1008.2
20260830224018 12 291 0.0 1.6 0.03 0.66 0.03 95 1008.1
20260830223518 12 291 0.0 1.6 0.05 0.66 0.03 95 1008.2
20260830223018 12 291 0.0 1.6 0.05 0.66 0.03 95 1008.3
20260830222517 12 291 0.0 1.6 0.03 0.64 0.00 95 1008.2
20260830222021 12 291 0.0 1.6 0.03 0.64 0.00 94 1008.2
20260830221516 12 291 0.0 0.0 0.03 0.64 0.00 94 1008.2
20260830221016 12 291 0.0 0.0 0.03 0.64 0.00 94 1008.2
20260830220515 13 291 0.0 0.0 0.05 0.64 0.00 94 1008.2
20260830220015 13 291 0.0 1.6 0.05 0.64 0.00 94 1008.1
20260830215514 13 291 0.0 1.6 0.05 0.64 0.64 94 1008.2
20260830215015 13 291 0.0 0.0 0.05 0.64 0.64 93 1008.2
20260830214512 13 291 0.0 0.0 0.05 0.64 0.64 93 1008.1
20260830214011 13 291 0.0 0.0 0.05 0.64 0.64 93 1008.2
20260830213511 13 291 0.0 0.0 0.03 0.61 0.61 93 1008.2
20260830213010 13 291 0.0 0.0 0.03 0.61 0.61 93 1008.1
20260830212509 13 291 0.0 3.2 0.05 0.61 0.61 93 1008.2
20260830212009 13 291 0.0 1.6 0.05 0.61 0.61 93 1008.2